BREEZE-M R/B, 40278

Orbit data source: Space-Track

BREEZE-M R/B, 40278 is space debris in GEO originally from a launch on Tue, 21 Oct 2014 UTC launched from the Tyuratam Missile And Space Complex (TTMTR). Debris objects in space refer to the collection of defunct objects orbiting the Earth. Examples of debris include non-operational satellites, rocket bodies, and fragments generated from explosions, collisions, or faulty payload assembly.

Not visible in the next 10 days
Identifier
40278, 2014-064B
Orbit
GEO
Country
Flag of CISCIS
Related business
Manufacturer
Khrunichev
Mission
Spacecraft
Bus & Motor
BRIZ, Unknown motor
Mass
~1,600 kg wet, 1,600 kg dry
Launch date (UTC)
2014-10-21 (12 years ago)
Launch vehicle
Unknown
Launch site
Tyuratam Missile And Space Complex (TTMTR)
Object type
Payload
Rocket body
Debris
Shape & HBR
Cyl, 2.0 m
Radar Cross Section
15.135 m², Large (>1 m²)

Expand to show TLE details & history
Last TLE update: 3 days ago

TLE from 3 days ago
0 BREEZE-M R/B
1 40278U 14064B   26170.29994373 -.00000140  00000-0  00000-0 0  9994
2 40278   9.3090  62.6174 0583607 217.9050 137.7365  0.95222206 40546
Epoch: 2026-06-19T07:11Z
TLE epoch observation values (Epoch: 2026-06-19T07:11:55.138Z)
Latitude
0.00001°
Longitude
47.03624°
Altitude
39,224.339 km
Speed
2.889 km/s
True Right ascension
04h 10m 11s
True Declination
0° 00' 00"
Sunlit
Object was in daylight at epoch
Visualization orbit readout
Latitude
Unknown
Longitude
Unknown
Altitude
Unknown
Speed
Unknown
Apparent Right ascension
Unknown
Apparent Declination
Unknown
Sunlit
N/A
Visualization observer readout
Local Sidereal Time
21:43:15
Azimuth
Unknown
Elevation
Unknown
Doppler factor
Unknown
Orbital elements
Apogee altitude
39,812.436 km
Perigee altitude
34,718.305 km
Semi-major axis
43,643.507 km
Eccentricity
0.05836
Inclination
9.309°
RAAN
62.6174°
Arg. of periapsis
217.905°
True anomaly
141.99949°
Mean anomaly
137.7365°
Eccentric anomaly
139.89075°
Mean motion
0.23805 °/min
Orbital period
1,512.3 mins
BSTAR
0
Loading maneuver chart data...
Computing Atmospheric mass density...
Loading historical data...
Loading historical data...
Loading historical data...
Loading historical data...
Loading historical data...
Loading historical data...
Loading historical data...
Other satellites on launch #64 in the year 2014 (2014-10-21 UTC)

Documentation

Showing up to 5 results
|